Weather History for KORH - April, 2013

Change the Weather History Date:

Sunday, April 14, 2013

  Actual Average Record
Temperature  
Mean Temperature 41 °F 46 °F  
Max Temperature 48 °F 55 °F 79 °F (1938)
Min Temperature 34 °F 37 °F 18 °F (1940)
Degree Days  
Heating Degree Days 24 20  
Month to date heating degree days 322 309  
Since 1 July heating degree days 5723 6085  
Cooling Degree Days 0 0  
Month to date cooling degree days 0 0  
Year to date cooling degree days 0 0  
Moisture  
Dew Point 28 °F    
Average Humidity 64    
Maximum Humidity 85    
Minimum Humidity 42    
Precipitation  
Precipitation 0.00 in 0.15 in 2.17 in (1895)
Month to date precipitation 1.22 2.04  
Year to date precipitation 11.78 12.97  
Sea Level Pressure  
Sea Level Pressure 30.04 in    
Wind  
Wind Speed 11 mph (WNW)    
Max Wind Speed 24 mph    
Max Gust Speed 30 mph    
Visibility 10 miles    
Events      
T = Trace of Precipitation, MM = Missing Value Source: NWS Daily Summary

Daily Weather History Graph

Daily Weather History Graph

Search for Another Location

Airport or City:

Trip Planner

Search our weather history database for the weather conditions in past years. The results will help you decide how hot, cold, wet, or windy it might be!

Date:

Astronomy

Apr. 14, 2013 Rise Set
Actual Time 6:07 AM EDT 7:28 PM EDT
Civil Twilight 5:38 AM EDT 7:57 PM EDT
Nautical Twilight 5:03 AM EDT 8:32 PM EDT
Astronomical Twilight 4:27 AM EDT 9:09 PM EDT
Moon 8:39 AM EDT (4/14) 11:42 PM EDT (4/14)
Length of Visible Light 14h 18m
Length of Day
13h 20m
Waxing Crescent, 17% of the Moon is Illuminated
Apr 14
Waxing Crescent
Apr 18
First Quarter
Apr 25
Full
May 2
Last Quarter
May 9
New

Hourly Weather History & Observations

Time (EDT) Temp. Windchill Dew Point Humidity Pressure Visibility Wind Dir Wind Speed Gust Speed Precip Events Conditions
12:54 AM 42.1 °F 37.1 °F 33.1 °F 70% 29.94 in 10.0 mi NNW 8.1 mph - 0.00 in   Partly Cloudy
1:54 AM 37.0 °F 33.3 °F 32.0 °F 82% 29.93 in 10.0 mi SSW 4.6 mph - N/A   Clear
2:54 AM 37.0 °F 32.4 °F 33.1 °F 86% 29.94 in 10.0 mi SW 5.8 mph - N/A   Overcast
3:54 AM 39.0 °F 33.4 °F 34.0 °F 82% 29.94 in 10.0 mi West 8.1 mph - N/A   Overcast
4:54 AM 39.0 °F 32.8 °F 35.1 °F 86% 29.95 in 10.0 mi WNW 9.2 mph - N/A   Overcast
5:54 AM 39.0 °F 32.8 °F 34.0 °F 82% 29.96 in 10.0 mi NW 9.2 mph - 0.00 in   Overcast
6:54 AM 37.9 °F 30.9 °F 32.0 °F 79% 29.97 in 10.0 mi NW 10.4 mph - N/A   Partly Cloudy
7:54 AM 42.1 °F 36.1 °F 32.0 °F 67% 29.99 in 10.0 mi WNW 10.4 mph - N/A   Scattered Clouds
8:54 AM 42.1 °F 35.2 °F 30.0 °F 62% 29.99 in 10.0 mi WNW 12.7 mph 23.0 mph N/A   Overcast
9:54 AM 39.9 °F 32.5 °F 30.0 °F 68% 30.01 in 10.0 mi West 12.7 mph 23.0 mph N/A   Overcast
10:54 AM 43.0 °F 36.0 °F 30.0 °F 60% 30.01 in 10.0 mi West 13.8 mph 18.4 mph N/A   Overcast
11:54 AM 43.0 °F 37.2 °F 28.0 °F 56% 30.02 in 10.0 mi WNW 10.4 mph - 0.00 in   Overcast
12:54 PM 45.0 °F 39.3 °F 26.1 °F 48% 30.01 in 10.0 mi WSW 11.5 mph - N/A   Overcast
1:54 PM 45.0 °F 38.2 °F 25.0 °F 46% 30.02 in 10.0 mi WNW 15.0 mph - N/A   Overcast
2:54 PM 46.9 °F - 24.1 °F 41% 30.04 in 10.0 mi WNW 19.6 mph 27.6 mph N/A   Mostly Cloudy
3:54 PM 46.0 °F 39.6 °F 24.1 °F 42% 30.04 in 10.0 mi WNW 15.0 mph 28.8 mph N/A   Scattered Clouds
4:54 PM 44.1 °F 35.9 °F 24.1 °F 45% 30.06 in 10.0 mi WNW 19.6 mph 26.5 mph N/A   Mostly Cloudy
5:54 PM 43.0 °F 35.1 °F 21.9 °F 43% 30.09 in 10.0 mi WNW 17.3 mph 26.5 mph N/A   Mostly Cloudy
6:54 PM 42.1 °F 37.1 °F 23.0 °F 47% 30.12 in 10.0 mi WNW 8.1 mph - N/A   Mostly Cloudy
7:54 PM 41.0 °F 35.2 °F 23.0 °F 49% 30.14 in 10.0 mi WNW 9.2 mph - N/A   Partly Cloudy
8:54 PM 39.0 °F 32.3 °F 24.1 °F 55% 30.18 in 10.0 mi WNW 10.4 mph - N/A   Clear
9:54 PM 37.0 °F 30.4 °F 24.1 °F 59% 30.20 in 10.0 mi WNW 9.2 mph - N/A   Clear
10:54 PM 36.0 °F 29.0 °F 24.1 °F 62% 30.22 in 10.0 mi WNW 9.2 mph - N/A   Clear
11:54 PM 34.0 °F 27.2 °F 24.1 °F 67% 30.23 in 10.0 mi WNW 8.1 mph - N/A   Clear